Location: Frydek-Mistek
(49.6830°N, 18.3330°E)
Time: 03:15:45
(UTC+01:00)

ISS - Pass Details

Date: 07 October 2020
Orbit: 417 x 420 km, 51.6° (Epoch: 25 October)

Event Time Altitude Azimuth Distance (km) Brightness Sun altitude
Rises 19:34:56 0° 280° (W) 2,368 2.1 -14.3°
Reaches altitude 10° 19:38:16 10° 244° (WSW) 1,499 -0.1 -14.8°
Maximum altitude 19:39:22 11° 225° (SW) 1,422 -0.6 -15.0°
Drops below altitude 10° 19:40:28 10° 206° (SSW) 1,496 -0.8 -15.1°
Enters shadow 19:43:22 - 173° (S) 2,216 -0.3 -15.6°
